TimeEST,TemperatureF,Dew PointF,Humidity,Sea Level PressureIn,VisibilityMPH,Wind Direction,Wind SpeedMPH,Gust SpeedMPH,PrecipitationIn,Events,Conditions,WindDirDegrees,DateUTC
12:55 AM,31.8,21.7,66,30.38,10.0,North,3.5,-,N/A,,Clear,350,2013-01-05 05:55:00
1:55 AM,32.4,21.9,65,30.35,10.0,NW,4.6,-,N/A,,Clear,310,2013-01-05 06:55:00
2:55 AM,28.4,21.4,75,30.36,10.0,WNW,5.8,-,N/A,,Clear,290,2013-01-05 07:55:00
3:55 AM,28.0,23.4,83,30.34,10.0,West,9.2,-,N/A,,Clear,270,2013-01-05 08:55:00
4:55 AM,27.7,23.4,84,30.35,10.0,West,5.8,-,N/A,,Clear,270,2013-01-05 09:55:00
5:55 AM,28.8,22.3,77,30.37,10.0,WSW,3.5,-,N/A,,Clear,240,2013-01-05 10:55:00
6:55 AM,27.7,21.7,78,30.38,10.0,Calm,Calm,-,N/A,,Scattered Clouds,0,2013-01-05 11:55:00
7:55 AM,28.2,24.3,85,30.38,10.0,Calm,Calm,-,N/A,,Mostly Cloudy,0,2013-01-05 12:55:00
8:55 AM,33.4,23.7,68,30.39,10.0,North,3.5,-,N/A,,Mostly Cloudy,350,2013-01-05 13:55:00
9:55 AM,36.5,23.7,60,30.40,10.0,Calm,Calm,-,N/A,,Overcast,0,2013-01-05 14:55:00
10:55 AM,38.1,23.2,55,30.41,10.0,Calm,Calm,-,N/A,,Overcast,0,2013-01-05 15:55:00
11:55 AM,42.4,22.6,46,30.40,10.0,Variable,3.5,-,N/A,,Overcast,0,2013-01-05 16:55:00
12:55 PM,44.6,23.2,43,30.35,10.0,SSE,3.5,-,N/A,,Overcast,160,2013-01-05 17:55:00
1:55 PM,46.2,21.9,38,30.32,10.0,SSW,4.6,-,N/A,,Overcast,200,2013-01-05 18:55:00
2:55 PM,46.8,22.1,38,30.31,10.0,South,4.6,-,N/A,,Overcast,180,2013-01-05 19:55:00
3:55 PM,47.5,21.4,36,30.30,10.0,SSE,3.5,-,N/A,,Overcast,160,2013-01-05 20:55:00
4:55 PM,47.1,21.2,36,30.30,10.0,Calm,Calm,-,N/A,,Overcast,0,2013-01-05 21:55:00
5:55 PM,46.0,23.7,42,30.31,10.0,WSW,3.5,-,N/A,,Overcast,240,2013-01-05 22:55:00
6:55 PM,46.0,25.5,45,30.35,10.0,WSW,6.9,-,N/A,,Overcast,240,2013-01-05 23:55:00
6:56 PM,46.4,24.8,43,30.35,10.0,WSW,6.9,-,N/A,Rain,Light Rain,240,2013-01-05 23:56:00
7:55 PM,43.9,32.2,63,30.35,10.0,WNW,3.5,-,0.00,,Overcast,290,2013-01-06 00:55:00
8:00 PM,44.6,32.0,61,30.35,10.0,Calm,Calm,-,N/A,,Light Drizzle,0,2013-01-06 01:00:00
8:17 PM,44.6,30.2,57,30.34,10.0,Calm,Calm,-,N/A,,Overcast,0,2013-01-06 01:17:00
8:21 PM,44.6,32.0,61,30.34,10.0,Calm,Calm,-,N/A,,Light Drizzle,0,2013-01-06 01:21:00
8:53 PM,42.8,35.6,76,30.33,10.0,Calm,Calm,-,N/A,,Overcast,0,2013-01-06 01:53:00
8:55 PM,43.2,35.1,73,30.33,10.0,Calm,Calm,-,0.00,,Overcast,0,2013-01-06 01:55:00
9:09 PM,42.8,35.6,76,30.32,10.0,Calm,Calm,-,N/A,,Light Drizzle,0,2013-01-06 02:09:00
9:55 PM,42.4,42.4,100,30.28,10.0,Calm,Calm,-,0.00,,Light Drizzle,0,2013-01-06 02:55:00
10:08 PM,42.8,42.8,100,30.29,10.0,Calm,Calm,-,N/A,Rain,Light Rain,0,2013-01-06 03:08:00
10:31 PM,42.8,42.8,100,30.29,10.0,NNW,3.5,-,N/A,,Overcast,340,2013-01-06 03:31:00
10:37 PM,42.8,42.8,100,30.28,10.0,North,3.5,-,N/A,,Light Drizzle,350,2013-01-06 03:37:00
10:46 PM,42.8,42.8,100,30.29,10.0,Calm,Calm,-,N/A,,Overcast,0,2013-01-06 03:46:00
10:55 PM,42.1,42.1,100,30.30,10.0,WNW,4.6,-,0.00,,Overcast,300,2013-01-06 03:55:00
11:06 PM,42.8,42.8,100,30.30,10.0,WNW,5.8,-,N/A,Rain,Light Rain,300,2013-01-06 04:06:00
11:07 PM,42.8,42.8,100,30.30,10.0,NW,5.8,-,N/A,Rain,Light Rain,310,2013-01-06 04:07:00
11:24 PM,42.8,42.8,100,30.31,10.0,WSW,6.9,-,N/A,,Overcast,250,2013-01-06 04:24:00
11:55 PM,41.4,41.4,100,30.31,10.0,West,4.6,-,0.00,,Overcast,270,2013-01-06 04:55:00